Location: Hobi?a Gr?di?te
(45.4833°N, 22.7833°E)
Time: 11:30:18
(UTC+00:00)

Meteor 1-27 - Pass Details

Date: 28 January 2023
Orbit: 837 x 892 km, 81.3° (Epoch: 21 March)

Event Time Altitude Azimuth Distance (km) Brightness Sun altitude
Rises 17:59:42 0° 350° (N) 3,509 7.6 -26.4°
Reaches altitude 10° 18:02:10 10° 351° (N) 2,560 6.8 -26.8°
Enters shadow 18:07:28 72° 21° (NNE) 927 4.2 -27.7°
